Startpagina
METAR-TAF:

METAR-TAF

Vliegvelden :

Longmont, Colorado, Verenigde Staten

breedte: 40-09-51N, lengte: 105-09-49W, hoogte: 1541 m

Actueel weer

Dit bericht is 17 minuten geleden gemaakt, om 18:35 UTC
Wind 4 kt uit het noordwesten
Temperatuur 18°C
Vochtigheid 28%
Druk 1023 hPa
Zicht: 16.1 km
Onbewolkt

METAR: KLMO 251835Z AUTO 31004KT 10SM CLR 18/M01 A3021 RMK AO2 T01771015

Tijdstip: 12:52 (18:52 UTC)


TAF: ontbreekt

Waarnemingen en weersverwachtingen van meer dan 4000 vliegvelden (METAR en TAF).

De beschikbare stations zijn de gele en rode punten op de kaart.

Ga met uw muis naar het station om de naam te zien.

Klik dan om waarnemingen en weersverwachtingen te zien.

kaart wijzigen: klik op de groene knoppen met een zwart kruis om in te zoomen, op de groene knop met een streepje om uit te zoomen of op de groene pijlen voor aangrenzende kaarten.


METAR-TAF: